Location: Unspecified
(38.0989°N, 0.6729°W)
Time: 13:30:31
(UTC+01:00)

ISS - Pass Details

Date: 30 November 2017
Orbit: 403 x 407 km, 51.6° (Epoch: 12 December)

Event Time Altitude Azimuth Distance (km) Brightness Sun altitude
Rises 19:37:53 0° 273° (W) 2,324 1.4 -22.1°
Reaches altitude 10° 19:40:33 10° 296° (WNW) 1,465 -0.3 -22.6°
Enters shadow 19:42:28 16° 332° (NNW) 1,162 -1.4 -22.9°
